Location: Clarion
(42.7316°N, 93.7330°W)
Time: 09:36:02
(UTC+00:00)

Cosmos 1980 Rocket - Pass Details

Date: 22 April 2026
Orbit: 826 x 850 km, 71.0° (Epoch: 16 May)

Event Time Altitude Azimuth Distance (km) Brightness Sun altitude
Rises 07:05:45 0° 333° (NNW) 3,423 6.0 -33.7°
Reaches altitude 10° 07:08:13 10° 331° (NNW) 2,484 5.1 -33.6°
Enters shadow 07:11:20 34° 323° (NW) 1,383 3.5 -33.5°
